• En España
  • Lista de países
  • Para 7 días
  • Temperatura del agua
  • Mapa Satelital
  • El tiempo en el mapa
  • Informadores
  • user-avatar
    Iniciar sesión

    Tiempo cada hora Bandar Abbas

    Hoy, 19 Septiembre, Miércoles

    Tiempo Temperatura Precipitaciones Viento Presión Humedad
    00:00 +35°C° 0 mm 2 mps 755 mmHg 63%
    01:00 +35°C° 0 mm 2 mps 755 mmHg 65%
    02:00 +34°C° 0 mm 2 mps 755 mmHg 67%
    03:00 +34°C° 0 mm 2 mps 755 mmHg 68%
    04:00 +34°C° 0 mm 2 mps 755 mmHg 69%
    05:00 +34°C° 0 mm 2 mps 755 mmHg 70%
    06:00 +34°C° 0 mm 2 mps 755 mmHg 71%
    07:00 +34°C° 0 mm 3 mps 755 mmHg 71%
    08:00 +35°C° 0 mm 3 mps 756 mmHg 66%
    09:00 +36°C° 0 mm 3 mps 756 mmHg 60%
    10:00 +38°C° 0 mm 3 mps 756 mmHg 53%
    11:00 +39°C° 0 mm 3 mps 755 mmHg 50%
    12:00 +40°C° 0 mm 3 mps 755 mmHg 46%
    13:00 +42°C° 0 mm 3 mps 754 mmHg 42%
    14:00 +42°C° 0 mm 3 mps 754 mmHg 42%
    15:00 +42°C° 0 mm 4 mps 754 mmHg 41%
    16:00 +42°C° 0 mm 4 mps 753 mmHg 40%
    17:00 +41°C° 0 mm 4 mps 753 mmHg 42%
    18:00 +40°C° 0 mm 3 mps 753 mmHg 44%
    19:00 +39°C° 0 mm 3 mps 753 mmHg 46%
    20:00 +38°C° 0 mm 2 mps 754 mmHg 48%
    21:00 +38°C° 0 mm 2 mps 754 mmHg 49%
    22:00 +38°C° 0 mm 2 mps 754 mmHg 50%
    23:00 +37°C° 0 mm 2 mps 754 mmHg 51%

    Mañana, 20 Septiembre, Jueves

    Tiempo Temperatura Precipitaciones Viento Presión Humedad
    00:00 +37°C° 0 mm 2 mps 754 mmHg 52%
    01:00 +36°C° 0 mm 1 mps 754 mmHg 53%
    02:00 +35°C° 0 mm 1 mps 754 mmHg 54%
    03:00 +35°C° 0 mm 1 mps 754 mmHg 55%
    04:00 +33°C° 0 mm 0 mps 754 mmHg 55%
    05:00 +33°C° 0 mm 0 mps 754 mmHg 54%
    06:00 +33°C° 0 mm 0 mps 754 mmHg 53%
    07:00 +34°C° 0 mm 0 mps 754 mmHg 52%
    08:00 +37°C° 0 mm 1 mps 754 mmHg 46%
    09:00 +40°C° 0 mm 1 mps 755 mmHg 40%
    10:00 +41°C° 0 mm 1 mps 755 mmHg 34%
    11:00 +42°C° 0 mm 2 mps 755 mmHg 31%
    12:00 +44°C° 0 mm 3 mps 754 mmHg 29%
    13:00 +45°C° 0 mm 4 mps 754 mmHg 26%
    14:00 +45°C° 0 mm 4 mps 754 mmHg 27%
    15:00 +45°C° 0 mm 4 mps 753 mmHg 27%
    16:00 +44°C° 0 mm 4 mps 753 mmHg 27%
    17:00 +44°C° 0 mm 4 mps 753 mmHg 29%
    18:00 +43°C° 0 mm 3 mps 753 mmHg 31%
    19:00 +42°C° 0 mm 3 mps 753 mmHg 32%
    20:00 +40°C° 0 mm 2 mps 754 mmHg 34%
    21:00 +40°C° 0 mm 2 mps 754 mmHg 35%
    22:00 +39°C° 0 mm 2 mps 754 mmHg 37%
    23:00 +37°C° 0 mm 1 mps 754 mmHg 38%

    Pasado mañana, 21 Septiembre, Viernes

    Tiempo Temperatura Precipitaciones Viento Presión Humedad
    00:00 +37°C° 0 mm 1 mps 754 mmHg 39%
    01:00 +36°C° 0 mm 1 mps 754 mmHg 41%
    02:00 +35°C° 0 mm 1 mps 754 mmHg 42%
    03:00 +35°C° 0 mm 1 mps 754 mmHg 42%
    04:00 +35°C° 0 mm 1 mps 754 mmHg 43%
    05:00 +35°C° 0 mm 1 mps 754 mmHg 42%
    06:00 +35°C° 0 mm 1 mps 755 mmHg 40%
    07:00 +36°C° 0 mm 1 mps 755 mmHg 39%
    08:00 +39°C° 0 mm 2 mps 755 mmHg 34%
    09:00 +40°C° 0 mm 2 mps 756 mmHg 29%
    10:00 +43°C° 0 mm 3 mps 756 mmHg 24%
    11:00 +44°C° 0 mm 4 mps 756 mmHg 23%
    12:00 +44°C° 0 mm 4 mps 755 mmHg 22%
    13:00 +45°C° 0 mm 4 mps 755 mmHg 21%
    14:00 +45°C° 0 mm 4 mps 754 mmHg 21%
    15:00 +45°C° 0 mm 4 mps 754 mmHg 21%
    16:00 +45°C° 0 mm 3 mps 754 mmHg 21%
    17:00 +44°C° 0 mm 3 mps 754 mmHg 23%
    18:00 +42°C° 0 mm 2 mps 754 mmHg 25%
    19:00 +41°C° 0 mm 2 mps 755 mmHg 26%
    20:00 +40°C° 0 mm 2 mps 755 mmHg 27%
    21:00 +40°C° 0 mm 2 mps 756 mmHg 28%
    22:00 +39°C° 0 mm 2 mps 756 mmHg 29%
    23:00 +38°C° 0 mm 2 mps 756 mmHg 32%

    22 Septiembre, Sábado

    Tiempo Temperatura Precipitaciones Viento Presión Humedad
    00:00 +37°C° 0 mm 1 mps 756 mmHg 35%
    01:00 +36°C° 0 mm 1 mps 755 mmHg 38%
    02:00 +35°C° 0 mm 1 mps 755 mmHg 39%
    03:00 +35°C° 0 mm 1 mps 755 mmHg 39%
    04:00 +34°C° 0 mm 1 mps 755 mmHg 39%
    05:00 +35°C° 0 mm 1 mps 755 mmHg 36%
    06:00 +36°C° 0 mm 1 mps 756 mmHg 34%
    07:00 +36°C° 0 mm 1 mps 756 mmHg 31%
    08:00 +39°C° 0 mm 2 mps 756 mmHg 28%
    09:00 +40°C° 0 mm 3 mps 756 mmHg 25%
    10:00 +43°C° 0 mm 3 mps 757 mmHg 21%
    11:00 +43°C° 0 mm 4 mps 756 mmHg 22%
    12:00 +44°C° 0 mm 4 mps 755 mmHg 23%
    13:00 +44°C° 0 mm 4 mps 755 mmHg 23%
    14:00 +44°C° 0 mm 4 mps 755 mmHg 23%
    15:00 +44°C° 0 mm 4 mps 754 mmHg 23%
    16:00 +44°C° 0 mm 3 mps 754 mmHg 23%
    17:00 +43°C° 0 mm 3 mps 754 mmHg 25%
    18:00 +42°C° 0 mm 3 mps 754 mmHg 27%
    19:00 +40°C° 0 mm 3 mps 755 mmHg 29%
    20:00 +39°C° 0 mm 2 mps 755 mmHg 32%
    21:00 +38°C° 0 mm 2 mps 756 mmHg 35%
    22:00 +38°C° 0 mm 2 mps 756 mmHg 38%
    23:00 +37°C° 0 mm 2 mps 756 mmHg 40%

    23 Septiembre, Domingo

    Tiempo Temperatura Precipitaciones Viento Presión Humedad
    00:00 +37°C° 0 mm 2 mps 756 mmHg 42%
    01:00 +35°C° 0 mm 1 mps 756 mmHg 44%
    02:00 +35°C° 0 mm 1 mps 756 mmHg 44%
    03:00 +34°C° 0 mm 1 mps 755 mmHg 44%
    04:00 +34°C° 0 mm 1 mps 755 mmHg 44%
    05:00 +34°C° 0 mm 1 mps 756 mmHg 42%
    06:00 +35°C° 0 mm 1 mps 756 mmHg 40%
    07:00 +35°C° 0 mm 1 mps 756 mmHg 37%
    08:00 +37°C° 0 mm 1 mps 757 mmHg 32%
    09:00 +40°C° 0 mm 1 mps 757 mmHg 26%
    10:00 +42°C° 0 mm 1 mps 757 mmHg 20%
    11:00 +43°C° 0 mm 2 mps 756 mmHg 18%
    12:00 +45°C° 0 mm 2 mps 756 mmHg 17%
    13:00 +46°C° 0 mm 3 mps 755 mmHg 15%
    14:00 +46°C° 0 mm 3 mps 755 mmHg 15%
    15:00 +47°C° 0 mm 4 mps 754 mmHg 15%
    16:00 +47°C° 0 mm 5 mps 754 mmHg 15%
    17:00 +45°C° 0 mm 4 mps 754 mmHg 16%
    18:00 +44°C° 0 mm 3 mps 754 mmHg 17%
    19:00 +42°C° 0 mm 3 mps 754 mmHg 19%
    20:00 +40°C° 0 mm 2 mps 755 mmHg 20%
    21:00 +39°C° 0 mm 2 mps 755 mmHg 21%
    22:00 +39°C° 0 mm 2 mps 756 mmHg 22%
    23:00 +38°C° 0 mm 2 mps 755 mmHg 23%

    24 Septiembre, Lunes

    Tiempo Temperatura Precipitaciones Viento Presión Humedad
    00:00 +37°C° 0 mm 2 mps 755 mmHg 25%
    01:00 +36°C° 0 mm 2 mps 755 mmHg 26%
    02:00 +35°C° 0 mm 1 mps 755 mmHg 27%
    03:00 +35°C° 0 mm 1 mps 755 mmHg 27%
    04:00 +34°C° 0 mm 1 mps 755 mmHg 27%
    05:00 +35°C° 0 mm 1 mps 755 mmHg 26%
    06:00 +35°C° 0 mm 1 mps 756 mmHg 25%
    07:00 +35°C° 0 mm 1 mps 756 mmHg 24%
    08:00 +37°C° 0 mm 1 mps 756 mmHg 22%
    09:00 +40°C° 0 mm 1 mps 756 mmHg 19%
    10:00 +42°C° 0 mm 1 mps 756 mmHg 16%
    11:00 +43°C° 0 mm 2 mps 756 mmHg 15%
    12:00 +44°C° 0 mm 3 mps 755 mmHg 15%
    13:00 +45°C° 0 mm 4 mps 755 mmHg 14%
    14:00 +46°C° 0 mm 5 mps 754 mmHg 15%
    15:00 +46°C° 0 mm 5 mps 754 mmHg 15%
    16:00 +46°C° 0 mm 5 mps 753 mmHg 16%
    17:00 +44°C° 0 mm 4 mps 753 mmHg 17%
    18:00 +42°C° 0 mm 4 mps 754 mmHg 19%
    19:00 +40°C° 0 mm 3 mps 754 mmHg 21%
    20:00 +39°C° 0 mm 3 mps 754 mmHg 23%
    21:00 +38°C° 0 mm 2 mps 755 mmHg 25%
    22:00 +38°C° 0 mm 2 mps 755 mmHg 27%
    23:00 +37°C° 0 mm 2 mps 755 mmHg 29%
    Mostrar más